TimePST,TemperatureF,Dew PointF,Humidity,Sea Level PressureIn,VisibilityMPH,Wind Direction,Wind SpeedMPH,Gust SpeedMPH,PrecipitationIn,Events,Conditions,WindDirDegrees,DateUTC
12:56 AM,28.0,27.0,96,30.28,10.0,South,6.9,-,N/A,,Clear,180,2013-12-24 08:56:00
1:56 AM,28.9,26.1,89,30.29,10.0,South,6.9,-,N/A,,Clear,190,2013-12-24 09:56:00
2:56 AM,27.0,24.1,89,30.30,10.0,SSW,3.5,-,N/A,,Clear,200,2013-12-24 10:56:00
3:56 AM,26.1,24.1,92,30.30,10.0,SSW,4.6,-,N/A,,Clear,200,2013-12-24 11:56:00
4:56 AM,24.1,21.9,91,30.30,10.0,North,3.5,-,N/A,,Clear,10,2013-12-24 12:56:00
5:56 AM,21.9,19.9,92,30.31,9.0,Calm,Calm,-,N/A,,Clear,0,2013-12-24 13:56:00
6:03 AM,23.0,21.0,92,30.44,7.0,Calm,Calm,-,N/A,,Partly Cloudy,0,2013-12-24 14:03:00
6:49 AM,21.0,19.0,92,30.45,0.8,ENE,4.6,-,N/A,,Partly Cloudy,70,2013-12-24 14:49:00
6:56 AM,19.9,18.0,92,30.32,0.2,NE,4.6,-,N/A,Fog,Light Freezing Fog,40,2013-12-24 14:56:00
7:56 AM,21.9,19.9,92,30.34,0.2,North,4.6,-,N/A,Fog,Light Freezing Fog,10,2013-12-24 15:56:00
8:33 AM,25.0,23.0,92,30.48,0.1,North,3.5,-,N/A,Fog,Light Freezing Fog,10,2013-12-24 16:33:00
8:56 AM,27.0,26.1,96,30.35,0.2,Calm,Calm,-,N/A,Fog,Light Freezing Fog,0,2013-12-24 16:56:00
9:00 AM,27.0,26.1,96,30.49,1.0,Calm,Calm,-,N/A,,Partly Cloudy,0,2013-12-24 17:00:00
9:13 AM,28.0,27.0,96,30.49,0.2,Calm,Calm,-,N/A,Fog,Light Freezing Fog,0,2013-12-24 17:13:00
9:56 AM,32.0,30.0,92,30.36,8.0,NNE,3.5,-,N/A,,Partly Cloudy,30,2013-12-24 17:56:00
10:56 AM,39.9,32.0,73,30.35,10.0,Calm,Calm,-,N/A,,Partly Cloudy,0,2013-12-24 18:56:00
11:56 AM,44.1,33.1,65,30.33,10.0,NNW,4.6,-,N/A,,Partly Cloudy,340,2013-12-24 19:56:00
12:56 PM,46.0,32.0,58,30.31,10.0,Variable,4.6,-,N/A,,Partly Cloudy,0,2013-12-24 20:56:00
1:56 PM,48.0,33.1,56,30.30,10.0,North,5.8,-,N/A,,Partly Cloudy,360,2013-12-24 21:56:00
2:56 PM,48.0,34.0,58,30.31,10.0,NNE,5.8,-,N/A,,Partly Cloudy,30,2013-12-24 22:56:00
3:56 PM,46.9,33.1,59,30.31,10.0,North,4.6,-,N/A,,Partly Cloudy,10,2013-12-24 23:56:00
4:56 PM,41.0,30.9,67,30.32,10.0,North,3.5,-,N/A,,Partly Cloudy,360,2013-12-25 00:56:00
5:56 PM,36.0,30.9,82,30.33,10.0,Calm,Calm,-,N/A,,Partly Cloudy,0,2013-12-25 01:56:00
6:56 PM,30.0,26.1,85,30.34,10.0,Calm,Calm,-,N/A,,Partly Cloudy,0,2013-12-25 02:56:00
7:56 PM,28.9,25.0,85,30.35,10.0,Calm,Calm,-,N/A,,Partly Cloudy,0,2013-12-25 03:56:00
8:56 PM,26.1,23.0,88,30.36,10.0,SSE,5.8,-,N/A,,Partly Cloudy,160,2013-12-25 04:56:00
9:56 PM,28.0,25.0,88,30.37,10.0,SSE,3.5,-,N/A,,Partly Cloudy,150,2013-12-25 05:56:00
10:14 PM,25.0,23.0,92,30.52,-9999.0,SSE,3.5,-,N/A,,Partly Cloudy,160,2013-12-25 06:14:00
10:56 PM,24.1,23.0,96,30.38,-9999.0,South,5.8,-,N/A,,Scattered Clouds,180,2013-12-25 06:56:00
11:04 PM,24.1,21.9,91,30.53,-9999.0,SSW,3.5,-,N/A,,Mostly Cloudy,210,2013-12-25 07:04:00
11:47 PM,23.0,21.0,92,30.52,-9999.0,SSW,3.5,-,N/A,,Scattered Clouds,210,2013-12-25 07:47:00
11:56 PM,23.0,21.9,96,30.38,-9999.0,South,5.8,-,N/A,,Partly Cloudy,190,2013-12-25 07:56:00